Tracking 26442 objects as of 7-Dec-2022
HD Live streaming from Space Station
objects crossing your sky now

STARLINK-5186

Track STARLINK-5186 now!
10-day predictions
STARLINK-5186 is classified as:


NORAD ID: 54177
Int'l Code: 2022-141W
Perigee: 367.4 km
Apogee: 371.2 km
Inclination: 53.2 °
Period: 91.8 minutes
Semi major axis: 6740 km
RCS: Unknown
Launch date: October 28, 2022
Source: United States (US)
Launch site: AIR FORCE WESTERN TEST RANGE (AFWTR)
aabbcc
Your satellite tracking list
Your tracking list is empty




NASA's NSSDC Master Catalog

Two Line Element Set (TLE):
1 54177U 22141W   22340.91667824 -.01187242  00000-0 -11239-1 0  9992
2 54177  53.2168 306.6036 0002787 269.1994 317.7793 15.68857187  6301
Source of the keplerian elements: AFSPC